Probability
1 2 3 3 3 3 1 0 0 1 1 1 0 0 0 0 0 0 0 0 0 1 1 2 3 3 3 2 1 0 0 0 0 0 0 0 0 0 0 0 0 0 0
1 2 3 3 3 3 2 0 0 0 0 0 0 0 0 0 0 0 0 0 1 2 3 4 3 2 2 1 0 0 0 0 0 0 0 0 0 0 0 0 0 0 0
1 2 3 3 3 3 2 0 0 0 0 0 0 0 0 0 0 0 1 1 2 3 4 4 3 2 2 1 0 0 0 0 0 0 0 0 0 0 0 0 0 0 0
2 2 3 3 3 3 2 1 0 0 0 0 0 0 1 1 0 0 1 2 3 3 3 3 2 2 1 1 0 0 0 0 0 0 0 0 0 0 0 0 0 0 0
2 3 4 4 3 3 3 2 1 0 0 0 0 1 2 2 1 1 1 3 3 3 2 2 2 2 2 1 0 0 0 0 0 0 0 0 0 0 0 0 0 0 0
1 1 3 4 4 4 4 3 1 0 0 0 0 1 2 3 3 1 1 2 2 2 2 2 3 3 3 1 0 0 0 0 0 0 0 0 0 0 0 0 0 0 0
0 0 2 4 5 6 6 5 3 1 1 1 1 2 3 3 2 1 0 1 1 1 1 2 3 2 2 1 0 0 1 0 0 0 0 0 0 0 0 0 0 0 0
0 0 1 3 5 6 6 5 3 2 2 2 2 2 2 2 1 0 0 0 0 0 1 1 1 1 1 0 0 0 0 0 0 0 0 0 0 0 0 0 0 0 0
0 0 1 2 3 3 3 3 2 1 1 1 1 1 1 1 0 0 0 1 0 0 0 0 0 0 0 0 1 1 1 0 0 0 0 0 0 0 0 0 0 0 0
0 0 0 1 1 1 1 2 1 1 1 1 0 0 0 0 0 0 0 0 0 0 0 0 0 0 0 0 1 2 1 0 0 0 0 0 0 0 0 0 0 0 0
0 0 0 0 0 0 0 1 2 2 2 1 0 0 0 0 0 0 0 0 0 0 0 0 0 0 0 0 1 1 1 0 0 0 0 0 0 0 0 0 0 0 0
0 0 0 0 0 0 0 1 2 2 2 1 1 0 0 0 0 0 0 1 0 0 0 0 0 1 0 0 0 0 0 0 0 0 0 0 0 0 0 0 0 0 0
0 0 0 0 0 0 0 0 1 2 2 2 1 0 0 0 0 0 0 0 0 0 0 0 0 0 0 0 0 0 0 0 0 0 0 0 0 0 0 0 0 0 0
0 0 0 0 0 1 1 1 1 1 2 1 1 1 0 0 0 0 0 0 0 0 0 0 0 0 0 0 0 0 0 0 0 0 0 0 0 0 0 0 0 0 0
0 0 0 0 1 2 2 1 1 1 0 1 1 2 1 0 0 0 0 0 0 0 0 0 0 0 0 0 0 0 0 0 0 0 0 0 0 0 0 0 0 0 0
1 1 0 1 2 3 3 3 2 1 0 0 2 3 2 1 1 0 0 0 0 0 0 0 0 0 0 1 0 0 0 0 1 1 0 0 0 0 0 0 0 0 0
2 1 0 1 2 3 3 3 2 1 0 1 2 3 3 3 2 1 0 0 0 0 0 0 0 0 0 0 0 0 0 1 2 2 1 0 0 0 0 0 0 0 0
1 1 1 1 3 3 3 3 1 1 1 2 3 4 5 4 3 2 1 0 0 0 0 0 0 0 0 0 0 0 1 2 3 2 1 0 0 0 0 0 0 0 0
1 3 4 5 5 4 4 3 2 2 4 5 5 5 5 5 4 2 1 0 0 0 0 0 0 0 0 0 0 1 2 3 3 2 1 0 0 0 0 0 0 0 0
4 7 10 10 9 8 7 7 6 5 7 7 7 6 5 5 3 2 2 1 0 0 0 0 0 0 0 0 0 1 2 3 3 3 2 1 0 0 0 0 0 0 1
12 15 16 16 15 14 13 12 10 9 9 9 8 6 5 4 3 3 3 3 1 1 1 0 0 0 0 1 1 1 1 2 3 3 2 1 0 0 0 0 0 0 1
19 20 21 21 21 20 18 15 14 12 11 9 8 6 4 3 3 4 6 5 4 3 2 1 1 2 2 3 4 2 1 1 2 2 3 2 1 1 0 0 0 0 1
23 22 22 24 25 24 20 17 15 14 13 10 7 6 4 4 4 6 7 7 6 6 4 3 3 4 4 5 6 5 3 2 3 3 3 3 3 2 1 0 0 0 0
22 20 20 23 26 26 23 19 17 16 13 10 7 6 6 6 7 7 7 8 8 8 7 6 5 6 6 6 6 6 5 5 5 4 3 3 3 3 1 0 0 0 0
17 17 18 23 28 30 27 23 19 17 13 9 8 8 8 8 9 8 8 9 10 10 9 10 9 8 8 8 8 7 7 7 7 6 5 5 4 3 2 0 0 0 0
14 14 17 26 34 35 31 26 21 18 14 11 10 9 8 9 9 8 9 10 11 11 11 13 13 11 10 10 10 9 9 9 9 8 8 7 5 3 1 0 0 0 0
Wind_Speed
6 9 11 11 12 13 13 14 14 13 13 13 13 14 14 14 14 14 14 15 15 16 16 16 16 16 16 16 16 16 16 15 15 15 14 14 14 14 13 13 12 13 15
8 10 12 11 12 13 13 13 13 13 13 13 13 14 14 14 14 14 14 15 15 15 15 15 16 16 16 16 16 15 15 15 15 15 14 14 13 13 12 10 10 12 14
9 10 12 12 12 13 13 13 13 13 13 13 13 13 14 14 14 14 14 15 15 15 16 16 16 16 16 15 15 15 14 14 13 13 12 12 13 12 13 13 14 14 14
9 10 12 12 12 12 12 12 13 13 13 13 13 13 13 14 14 14 14 14 15 15 15 16 16 16 15 15 14 14 14 13 10 9 8 10 12 13 13 13 14 13 13
10 11 13 11 12 12 12 12 12 13 13 13 13 13 14 14 13 14 14 14 15 15 15 15 15 15 14 14 13 13 12 11 8 6 9 10 11 13 13 13 13 13 12
10 11 14 11 12 12 12 12 12 13 13 13 13 13 14 14 14 14 14 14 15 15 14 14 14 14 13 13 12 12 10 8 7 8 8 9 10 12 12 12 13 12 12
10 11 13 12 11 12 12 12 13 13 13 13 13 13 13 13 14 14 14 14 14 14 13 13 13 13 12 12 11 10 8 4 5 8 8 8 11 11 11 11 11 11 11
10 11 13 12 11 12 12 12 12 13 13 13 13 13 13 13 13 14 14 14 13 13 13 12 12 12 11 10 10 8 5 3 7 8 8 9 11 10 10 10 11 11 11
9 9 9 11 11 11 11 11 12 12 13 13 12 13 13 13 13 13 12 12 12 12 12 11 11 11 10 9 8 7 4 2 3 6 7 8 11 10 10 10 10 10 10
8 8 8 8 8 9 11 11 12 11 12 12 12 12 12 13 12 11 11 11 11 10 10 10 10 10 9 8 7 6 4 5 4 6 6 9 10 9 9 9 9 10 9
7 6 7 8 7 7 9 10 10 10 9 10 10 9 7 7 9 8 12 10 9 9 9 9 9 8 7 8 7 6 6 2 5 4 6 11 10 9 9 9 9 9 9
7 7 6 6 6 7 6 6 5 6 6 5 6 6 5 5 5 8 11 9 9 9 8 8 7 7 6 6 8 8 3 3 3 4 7 11 9 8 8 8 8 8 8
7 6 6 6 4 5 5 4 3 4 4 5 6 5 4 4 5 5 5 7 7 7 5 7 6 2 2 3 2 2 2 2 2 3 8 9 8 8 8 8 8 8 8
6 6 6 6 5 3 3 4 3 3 3 4 5 3 4 3 3 3 2 3 3 3 2 2 2 2 2 2 2 2 2 1 2 3 6 9 8 8 8 8 8 8 8
7 6 6 5 5 4 3 2 3 3 3 4 3 3 2 2 3 3 2 1 1 2 2 1 1 2 1 1 1 1 1 1 2 2 5 9 8 8 8 9 9 9 9
7 7 6 6 5 4 3 2 2 3 3 2 2 3 2 2 2 2 2 1 1 1 1 1 1 1 1 0 0 1 1 1 2 2 3 7 9 9 9 9 9 9 10
7 7 6 6 5 5 4 3 3 3 3 3 3 3 2 2 2 2 1 1 1 1 1 1 0 0 1 2 2 2 2 2 2 2 3 3 6 10 10 10 10 10 10
7 7 7 6 6 5 4 2 2 2 2 2 2 3 3 2 2 2 1 1 1 2 1 1 2 1 0 1 1 2 2 2 3 4 4 4 3 4 9 11 10 10 10
8 8 8 7 7 6 5 4 3 2 1 1 2 2 3 3 3 3 1 1 2 2 1 2 0 1 1 2 3 3 3 3 3 4 3 4 4 4 4 9 12 11 11
9 9 8 8 7 6 5 4 3 3 3 3 2 2 2 2 3 3 2 2 3 2 2 1 1 2 3 3 4 2 3 3 3 3 4 4 4 5 5 4 7 10 13
10 10 9 9 8 6 5 4 4 4 3 3 3 3 3 3 3 3 3 2 3 2 2 3 3 3 3 2 3 3 3 4 4 3 4 3 4 5 4 5 5 4 6
11 10 10 10 9 9 6 4 3 3 3 3 2 2 4 4 4 4 4 3 3 2 3 3 3 3 2 2 3 3 2 2 3 3 4 4 4 4 5 6 5 5 6
12 12 10 10 10 9 8 6 4 4 4 4 4 3 4 4 4 4 4 4 3 4 3 4 4 4 3 3 2 3 3 2 1 2 2 2 2 3 4 4 6 6 7
12 11 11 11 10 9 9 8 8 6 5 4 3 3 3 4 4 4 4 4 4 4 3 5 3 3 4 4 2 3 4 4 3 2 3 2 3 4 4 4 4 4 5
11 11 10 10 10 9 9 8 8 7 5 4 3 3 3 3 4 4 4 4 4 4 4 4 3 4 4 4 3 3 3 3 5 4 3 3 2 2 2 2 2 2 2
10 10 10 10 9 9 9 9 8 7 6 5 4 3 4 3 3 4 4 4 4 4 4 4 4 5 4 4 4 3 3 3 3 3 4 4 3 2 1 2 2 2 2
Wind_Direction
83 84 83 81 85 87 87 88 92 97 99 100 103 106 108 109 108 108 108 109 108 107 109 112 112 112 111 111 111 112 112 112 112 112 112 111 112 114 117 125 128 112 113
91 89 86 83 85 87 87 88 90 94 97 98 103 107 110 111 111 109 109 110 109 109 110 111 112 112 110 110 110 111 113 114 114 117 120 117 114 114 115 110 99 108 118
91 95 94 83 85 86 88 89 90 92 95 96 103 106 109 110 111 110 109 110 109 109 110 110 110 109 108 108 108 110 113 114 117 126 139 125 116 114 112 108 106 115 116
95 96 88 85 85 87 88 90 91 93 95 96 100 105 108 110 111 110 110 110 111 110 110 110 109 108 107 107 107 108 109 113 124 151 136 115 116 114 115 115 116 118 117
94 93 90 87 87 87 87 87 89 91 94 95 97 103 107 107 109 109 109 109 110 109 109 109 109 109 108 107 108 109 112 118 141 148 102 106 109 117 120 121 120 121 122
100 96 93 89 88 88 86 87 90 92 93 92 93 100 104 107 108 106 106 106 107 107 107 107 108 109 109 108 109 112 119 139 167 110 110 113 111 120 122 122 122 123 123
99 98 97 91 89 87 85 86 89 92 90 88 88 95 100 103 104 105 105 105 105 105 106 106 107 108 107 108 109 113 120 150 117 108 114 107 105 119 123 124 125 124 124
103 101 102 99 92 90 88 87 87 89 90 89 88 94 98 99 102 103 103 103 104 103 103 105 107 109 108 109 112 118 132 199 121 112 111 109 111 125 128 129 129 129 128
103 104 109 115 110 102 92 89 90 91 93 91 89 93 97 97 97 99 101 102 103 103 103 104 108 110 113 113 116 119 128 266 121 113 116 110 122 131 132 133 133 134 135
105 104 107 100 105 114 110 98 95 93 94 95 92 94 100 106 105 108 111 103 104 106 105 107 110 111 113 116 121 133 169 222 123 119 114 114 132 139 141 141 140 142 142
111 107 108 110 114 110 106 111 114 108 105 114 107 107 124 118 115 122 97 107 112 110 109 109 112 119 131 134 135 158 203 175 114 101 101 116 142 148 150 150 150 152 153
129 125 114 110 117 111 107 114 119 115 112 104 101 108 105 95 92 99 110 109 114 116 119 117 129 163 192 144 151 189 182 131 121 118 110 130 148 156 160 161 162 163 164
138 133 126 115 101 105 111 113 102 104 111 114 108 111 101 111 117 117 128 133 133 147 139 139 174 158 110 85 109 137 101 110 123 120 120 143 158 166 171 173 176 175 173
146 139 131 130 126 104 96 110 124 123 122 113 113 119 112 96 96 98 111 115 138 124 102 116 106 93 74 93 102 107 127 137 116 109 125 152 168 177 181 182 185 185 185
154 150 141 143 137 135 124 132 119 113 115 113 121 113 111 116 103 99 93 89 109 110 140 117 95 103 138 142 123 131 118 103 116 149 135 161 179 189 194 192 191 193 194
163 157 154 161 153 152 155 151 130 129 125 121 126 114 115 102 100 110 130 123 95 110 62 69 107 139 208 124 193 165 229 177 153 180 165 165 183 194 202 202 202 203 203
165 160 165 170 167 171 176 175 163 155 152 140 127 133 152 155 147 165 145 178 130 136 143 183 89 245 221 199 202 210 213 209 176 189 208 193 179 191 203 209 209 212 213
175 172 179 183 174 179 184 197 190 176 151 150 151 153 162 171 191 218 187 186 156 205 200 200 233 245 280 268 232 231 215 204 210 203 208 205 204 194 192 203 212 217 221
188 185 186 192 184 183 181 190 202 189 190 193 180 178 172 192 202 225 225 170 217 228 234 260 120 285 275 275 253 217 231 223 220 220 221 217 211 224 212 184 202 216 224
192 194 195 193 192 188 188 189 204 206 204 209 201 199 211 212 214 234 222 208 232 231 234 259 276 266 275 273 281 274 244 232 230 225 232 223 215 222 228 216 203 208 215
193 195 197 200 191 195 198 203 203 202 210 209 206 200 211 224 222 232 249 211 237 234 252 254 253 240 253 273 270 262 247 221 215 219 225 239 221 220 229 230 237 235 206
194 197 199 201 199 200 198 207 217 220 224 221 226 203 223 228 232 225 229 235 227 237 242 247 250 272 269 253 279 284 267 214 200 211 206 212 233 227 230 228 234 238 254
197 198 200 201 201 204 202 205 207 200 216 215 215 216 224 232 235 248 235 244 244 242 234 244 249 254 270 264 261 282 288 300 293 194 217 225 238 249 251 248 237 235 240
199 198 199 198 199 198 201 212 217 220 224 227 227 217 220 229 237 238 240 239 245 248 241 248 236 255 262 265 248 256 277 308 291 268 219 204 226 241 256 265 262 242 240
198 197 195 196 198 197 201 207 217 227 227 225 221 223 237 226 232 238 241 241 243 251 253 262 262 256 254 261 263 255 251 246 251 271 280 281 266 255 252 251 273 275 260
195 196 193 190 195 197 201 205 214 224 230 235 231 232 232 223 226 226 236 238 241 251 253 253 253 243 252 262 264 259 257 262 263 268 275 282 284 290 299 305 295 282 277